Torna al catalogo

ATLAS 5 CENTAUR DEB

AttivoHEO
NORAD 46865·DEBRIS·🇺🇸 United States

Lanciato Oct 17, 2018 da Cape Canaveral Space Force Station

Loading…

Prossimi Passaggi (prossime 24 ore)

TLE

AggiornatoSource: Space-Track

Epoca: Sep 11, 2026, 09:58 UTC

1 46865U 18079DW  26254.41551362 -.00000183  00000-0  00000-0 0  9993
2 46865  13.2228  22.5627 4529991 348.0659   3.9190  1.88836544 40404

Traccia ATLAS 5 CENTAUR DEB in tempo reale con AllMySat

Download on the App Store